| time (UTC) | temp F | wind direction | speed MPH | gust MPH | rain 1hr in | rain 24hr in | rain mn in | humidity % | barometer mb |
| 20260504022314 | 58 | 36 | 0.0 | 2.0 | 0.00 | 0.00 | 0.00 | 45 | 1054.0 |
| 20260504021810 | 58 | 243 | 1.0 | 1.0 | 0.00 | 0.00 | 0.00 | 45 | 1053.9 |
| 20260504021308 | 58 | 326 | 0.0 | 1.0 | 0.00 | 0.00 | 0.00 | 45 | 1053.9 |
| 20260504020804 | 58 | 310 | 0.0 | 1.0 | 0.00 | 0.00 | 0.00 | 43 | 1053.9 |
| 20260504020301 | 58 | 322 | 0.0 | 0.0 | 0.00 | 0.00 | 0.00 | 44 | 1054.0 |
| 20260504015757 | 59 | 217 | 0.0 | 0.0 | 0.00 | 0.00 | 0.00 | 42 | 1053.8 |
| 20260504015253 | 60 | 217 | 0.0 | 1.0 | 0.00 | 0.00 | 0.00 | 40 | 1053.6 |
| 20260504014749 | 60 | 336 | 0.0 | 2.0 | 0.00 | 0.00 | 0.00 | 40 | 1053.8 |
| 20260504014246 | 60 | 269 | 0.0 | 0.0 | 0.00 | 0.00 | 0.00 | 40 | 1053.7 |
| 20260504013744 | 60 | 269 | 0.0 | 2.0 | 0.00 | 0.00 | 0.00 | 39 | 1053.7 |
| 20260504013241 | 61 | 282 | 1.0 | 2.0 | 0.00 | 0.00 | 0.00 | 39 | 1053.8 |
| 20260504012737 | 61 | 224 | 0.0 | 1.0 | 0.00 | 0.00 | 0.00 | 39 | 1053.7 |
| 20260504012235 | 62 | 222 | 0.0 | 1.0 | 0.00 | 0.00 | 0.00 | 38 | 1053.8 |
| 20260504011732 | 62 | 356 | 0.0 | 2.0 | 0.00 | 0.00 | 0.00 | 37 | 1053.8 |
| 20260504011229 | 63 | 9 | 1.0 | 2.0 | 0.00 | 0.00 | 0.00 | 36 | 1053.6 |
| 20260504010725 | 63 | 266 | 0.0 | 1.0 | 0.00 | 0.00 | 0.00 | 36 | 1053.6 |
| 20260504010221 | 64 | 47 | 0.0 | 2.0 | 0.00 | 0.00 | 0.00 | 35 | 1053.7 |
| 20260504005718 | 65 | 108 | 1.0 | 3.0 | 0.00 | 0.00 | 0.00 | 35 | 1053.8 |
| 20260504005215 | 65 | 290 | 2.0 | 2.0 | 0.00 | 0.00 | 0.00 | 34 | 1053.7 |
| 20260504004712 | 66 | 330 | 0.0 | 4.0 | 0.00 | 0.00 | 0.00 | 33 | 1053.8 |
| 20260504004209 | 67 | 186 | 2.0 | 5.0 | 0.00 | 0.00 | 0.00 | 32 | 1053.8 |
| 20260504003706 | 68 | 313 | 3.0 | 3.0 | 0.00 | 0.00 | 0.00 | 31 | 1053.7 |
| 20260504003203 | 68 | 349 | 2.0 | 3.0 | 0.00 | 0.00 | 0.00 | 31 | 1053.8 |
| 20260504002659 | 69 | 293 | 3.0 | 5.0 | 0.00 | 0.00 | 0.00 | 31 | 1053.7 |
| 20260504002157 | 69 | 45 | 2.0 | 6.0 | 0.00 | 0.00 | 0.00 | 30 | 1053.9 |
| 20260504001655 | 69 | 69 | 3.0 | 6.0 | 0.00 | 0.00 | 0.00 | 29 | 1053.9 |
| 20260504001150 | 69 | 334 | 2.0 | 8.0 | 0.00 | 0.00 | 0.00 | 29 | 1053.7 |
| 20260504000648 | 70 | 317 | 3.0 | 4.0 | 0.00 | 0.00 | 0.00 | 28 | 1054.0 |
| 20260504000145 | 70 | 286 | 3.0 | 8.0 | 0.00 | 0.00 | 0.00 | 28 | 1053.8 |
| 20260503235643 | 70 | 271 | 3.0 | 8.0 | 0.00 | 0.00 | 0.00 | 29 | 1053.8 |
| 20260503235139 | 70 | 345 | 3.0 | 5.0 | 0.00 | 0.00 | 0.00 | 30 | 1053.8 |
| 20260503234638 | 70 | 337 | 2.0 | 6.0 | 0.00 | 0.00 | 0.00 | 30 | 1053.8 |
| 20260503234135 | 71 | 250 | 7.0 | 7.0 | 0.00 | 0.00 | 0.00 | 29 | 1053.9 |
| 20260503233632 | 70 | 318 | 3.0 | 10.0 | 0.00 | 0.00 | 0.00 | 29 | 1053.7 |
| 20260503233127 | 70 | 337 | 3.0 | 10.0 | 0.00 | 0.00 | 0.00 | 29 | 1053.7 |
| 20260503232625 | 71 | 224 | 2.0 | 5.0 | 0.00 | 0.00 | 0.00 | 30 | 1053.9 |
| 20260503232122 | 71 | 348 | 3.0 | 11.0 | 0.00 | 0.00 | 0.00 | 30 | 1053.9 |
| 20260503231620 | 71 | 188 | 2.0 | 10.0 | 0.00 | 0.00 | 0.00 | 29 | 1054.0 |
| 20260503231116 | 71 | 280 | 5.0 | 7.0 | 0.00 | 0.00 | 0.00 | 30 | 1053.9 |
| 20260503230613 | 71 | 311 | 6.0 | 11.0 | 0.00 | 0.00 | 0.00 | 30 | 1053.8 |
| 20260503230110 | 71 | 301 | 7.0 | 9.0 | 0.00 | 0.00 | 0.00 | 29 | 1053.8 |
| 20260503225608 | 71 | 313 | 3.0 | 9.0 | 0.00 | 0.00 | 0.00 | 28 | 1053.8 |
| 20260503225107 | 71 | 294 | 2.0 | 8.0 | 0.00 | 0.00 | 0.00 | 27 | 1053.9 |
| 20260503224605 | 71 | 340 | 3.0 | 9.0 | 0.00 | 0.00 | 0.00 | 27 | 1054.0 |
| 20260503224103 | 71 | 354 | 4.0 | 7.0 | 0.00 | 0.00 | 0.00 | 27 | 1053.8 |
| 20260503223601 | 71 | 345 | 2.0 | 10.0 | 0.00 | 0.00 | 0.00 | 28 | 1053.8 |
| 20260503223056 | 71 | 336 | 5.0 | 10.0 | 0.00 | 0.00 | 0.00 | 28 | 1053.9 |
| 20260503222554 | 71 | 181 | 2.0 | 6.0 | 0.00 | 0.00 | 0.00 | 28 | 1053.7 |
| 20260503222052 | 71 | 291 | 4.0 | 11.0 | 0.00 | 0.00 | 0.00 | 28 | 1053.8 |
| 20260503221550 | 72 | 337 | 6.0 | 8.0 | 0.00 | 0.00 | 0.00 | 29 | 1053.7 |
| 20260503221047 | 71 | 353 | 3.0 | 13.0 | 0.00 | 0.00 | 0.00 | 30 | 1053.8 |
| 20260503220543 | 71 | 359 | 3.0 | 7.0 | 0.00 | 0.00 | 0.00 | 30 | 1053.7 |
| 20260503220040 | 71 | 331 | 6.0 | 10.0 | 0.00 | 0.00 | 0.00 | 29 | 1053.6 |
| 20260503215537 | 71 | 321 | 3.0 | 6.0 | 0.00 | 0.00 | 0.00 | 29 | 1053.6 |
| 20260503215034 | 71 | 274 | 6.0 | 11.0 | 0.00 | 0.00 | 0.00 | 29 | 1053.7 |
| 20260503214532 | 71 | 352 | 5.0 | 9.0 | 0.00 | 0.00 | 0.00 | 28 | 1053.7 |
| 20260503214029 | 72 | 343 | 5.0 | 9.0 | 0.00 | 0.00 | 0.00 | 28 | 1053.9 |
| 20260503213527 | 71 | 337 | 4.0 | 9.0 | 0.00 | 0.00 | 0.00 | 30 | 1053.8 |
| 20260503213023 | 72 | 354 | 4.0 | 6.0 | 0.00 | 0.00 | 0.00 | 29 | 1053.8 |
| 20260503212521 | 71 | 344 | 5.0 | 7.0 | 0.00 | 0.00 | 0.00 | 31 | 1053.8 |
| 20260503212018 | 71 | 15 | 7.0 | 9.0 | 0.00 | 0.00 | 0.00 | 31 | 1053.9 |
| 20260503211515 | 71 | 338 | 5.0 | 12.0 | 0.00 | 0.00 | 0.00 | 29 | 1053.9 |
| 20260503211011 | 72 | 344 | 5.0 | 14.0 | 0.00 | 0.00 | 0.00 | 30 | 1054.0 |
| 20260503210508 | 71 | 284 | 5.0 | 8.0 | 0.00 | 0.00 | 0.00 | 30 | 1054.1 |
| 20260503210003 | 71 | 340 | 7.0 | 11.0 | 0.00 | 0.00 | 0.00 | 32 | 1054.0 |
| 20260503205500 | 71 | 352 | 1.0 | 9.0 | 0.00 | 0.00 | 0.00 | 33 | 1054.1 |
| 20260503204956 | 72 | 320 | 5.0 | 15.0 | 0.00 | 0.00 | 0.00 | 32 | 1054.2 |
| 20260503204454 | 71 | 53 | 2.0 | 14.0 | 0.00 | 0.00 | 0.00 | 33 | 1054.2 |
| 20260503203950 | 72 | 84 | 4.0 | 7.0 | 0.00 | 0.00 | 0.00 | 31 | 1054.2 |
| 20260503203448 | 71 | 312 | 4.0 | 11.0 | 0.00 | 0.00 | 0.00 | 31 | 1054.2 |
| 20260503202944 | 73 | 53 | 3.0 | 7.0 | 0.00 | 0.00 | 0.00 | 33 | 1054.2 |
| 20260503202443 | 72 | 10 | 3.0 | 7.0 | 0.00 | 0.00 | 0.00 | 33 | 1054.2 |
| 20260503201941 | 72 | 323 | 7.0 | 11.0 | 0.00 | 0.00 | 0.00 | 31 | 1054.1 |
| 20260503201438 | 72 | 6 | 3.0 | 6.0 | 0.00 | 0.00 | 0.00 | 32 | 1054.3 |
| 20260503200935 | 71 | 324 | 3.0 | 11.0 | 0.00 | 0.00 | 0.00 | 31 | 1054.2 |
| 20260503200431 | 72 | 317 | 3.0 | 9.0 | 0.00 | 0.00 | 0.00 | 30 | 1054.4 |
| 20260503195928 | 72 | 211 | 1.0 | 13.0 | 0.00 | 0.00 | 0.00 | 30 | 1054.2 |
| 20260503195426 | 72 | 321 | 7.0 | 7.0 | 0.00 | 0.00 | 0.00 | 30 | 1054.3 |
| 20260503194922 | 72 | 343 | 3.0 | 10.0 | 0.00 | 0.00 | 0.00 | 31 | 1054.4 |
| 20260503194419 | 72 | 344 | 6.0 | 9.0 | 0.00 | 0.00 | 0.00 | 31 | 1054.4 |
| 20260503193914 | 72 | 327 | 8.0 | 11.0 | 0.00 | 0.00 | 0.00 | 32 | 1054.5 |
| 20260503193410 | 70 | 336 | 5.0 | 9.0 | 0.00 | 0.00 | 0.00 | 35 | 1054.5 |
| 20260503192906 | 71 | 6 | 6.0 | 7.0 | 0.00 | 0.00 | 0.00 | 34 | 1054.7 |
| 20260503192402 | 70 | 7 | 3.0 | 8.0 | 0.00 | 0.00 | 0.00 | 33 | 1054.8 |
| 20260503191858 | 71 | 95 | 2.0 | 6.0 | 0.00 | 0.00 | 0.00 | 31 | 1054.4 |
| 20260503191355 | 71 | 306 | 8.0 | 9.0 | 0.00 | 0.00 | 0.00 | 30 | 1054.4 |
| 20260503190852 | 72 | 357 | 4.0 | 9.0 | 0.00 | 0.00 | 0.00 | 32 | 1054.8 |
| 20260503190349 | 70 | 356 | 3.0 | 7.0 | 0.00 | 0.00 | 0.00 | 35 | 1054.4 |
| 20260503185846 | 69 | 20 | 6.0 | 14.0 | 0.00 | 0.00 | 0.00 | 38 | 1054.4 |
| 20260503185342 | 70 | 333 | 4.0 | 13.0 | 0.00 | 0.00 | 0.00 | 34 | 1054.5 |
| 20260503184842 | 71 | 257 | 4.0 | 6.0 | 0.00 | 0.00 | 0.00 | 35 | 1054.4 |
| 20260503184339 | 69 | 351 | 5.0 | 13.0 | 0.00 | 0.00 | 0.00 | 35 | 1054.8 |
| 20260503183834 | 70 | 18 | 5.0 | 13.0 | 0.00 | 0.00 | 0.00 | 36 | 1054.5 |
| 20260503183332 | 70 | 25 | 3.0 | 7.0 | 0.00 | 0.00 | 0.00 | 37 | 1054.9 |
| 20260503182829 | 71 | 317 | 2.0 | 9.0 | 0.00 | 0.00 | 0.00 | 38 | 1054.8 |
| 20260503182328 | 71 | 0 | 4.0 | 5.0 | 0.00 | 0.00 | 0.00 | 36 | 1054.8 |
| 20260503181825 | 71 | 31 | 1.0 | 9.0 | 0.00 | 0.00 | 0.00 | 38 | 1055.1 |
| 20260503181322 | 70 | 25 | 11.0 | 11.0 | 0.00 | 0.00 | 0.00 | 39 | 1054.9 |
| 20260503180818 | 69 | 342 | 5.0 | 8.0 | 0.00 | 0.00 | 0.00 | 37 | 1055.0 |
| 20260503180317 | 69 | 357 | 5.0 | 10.0 | 0.00 | 0.00 | 0.00 | 39 | 1055.0 |
| 20260503175813 | 69 | 277 | 2.0 | 9.0 | 0.00 | 0.00 | 0.00 | 39 | 1054.8 |
| 20260503175311 | 68 | 322 | 6.0 | 10.0 | 0.00 | 0.00 | 0.00 | 41 | 1054.9 |
| 20260503174806 | 68 | 319 | 2.0 | 9.0 | 0.00 | 0.00 | 0.00 | 42 | 1055.0 |
| 20260503174304 | 67 | 12 | 9.0 | 13.0 | 0.00 | 0.00 | 0.00 | 42 | 1054.9 |
| 20260503173800 | 67 | 22 | 7.0 | 18.0 | 0.00 | 0.00 | 0.00 | 41 | 1055.1 |
| 20260503173255 | 67 | 11 | 9.0 | 12.0 | 0.00 | 0.00 | 0.00 | 42 | 1054.9 |
| 20260503172753 | 68 | 336 | 3.0 | 12.0 | 0.00 | 0.00 | 0.00 | 41 | 1055.0 |
| 20260503172250 | 65 | 17 | 5.0 | 15.0 | 0.00 | 0.00 | 0.00 | 44 | 1054.9 |
| 20260503171746 | 66 | 8 | 11.0 | 14.0 | 0.00 | 0.00 | 0.00 | 42 | 1055.0 |
| 20260503171243 | 67 | 20 | 4.0 | 8.0 | 0.00 | 0.00 | 0.00 | 42 | 1055.0 |
| 20260503170740 | 69 | 306 | 6.0 | 9.0 | 0.00 | 0.00 | 0.00 | 41 | 1054.9 |
| 20260503170237 | 68 | 310 | 6.0 | 8.0 | 0.00 | 0.00 | 0.00 | 42 | 1054.9 |
| 20260503160159 | 65 | 322 | 7.0 | 9.0 | 0.00 | 0.00 | 0.00 | 44 | 1054.8 |
| 20260503150629 | 64 | 5 | 2.0 | 6.0 | 0.00 | 0.00 | 0.00 | 43 | 1054.5 |
| 20260503150125 | 64 | 126 | 5.0 | 6.0 | 0.00 | 0.00 | 0.00 | 44 | 1054.4 |
| 20260503131019 | 55 | 200 | 8.0 | 23.0 | 0.00 | 0.00 | 0.00 | 51 | 1054.9 |
| 20260503130516 | 55 | 210 | 4.0 | 6.0 | 0.00 | 0.00 | 0.00 | 51 | 1055.0 |
| 20260503110407 | 51 | 214 | 15.0 | 21.0 | 0.00 | 0.00 | 0.00 | 57 | 1054.7 |
| 20260503090257 | 54 | 197 | 8.0 | 16.0 | 0.00 | 0.00 | 0.00 | 51 | 1056.3 |
| 20260503081231 | 55 | 188 | 7.0 | 14.0 | 0.00 | 0.00 | 0.00 | 49 | 1057.8 |
| 20260503080726 | 55 | 178 | 5.0 | 11.0 | 0.00 | 0.00 | 0.00 | 50 | 1057.8 |
| 20260503080224 | 55 | 230 | 5.0 | 9.0 | 0.00 | 0.00 | 0.00 | 51 | 1057.9 |
| 20260503072700 | 54 | 213 | 5.0 | 9.0 | 0.00 | 0.00 | 0.00 | 50 | 1057.6 |
| 20260503072157 | 54 | 227 | 6.0 | 6.0 | 0.00 | 0.00 | 0.00 | 48 | 1057.6 |
| 20260503071654 | 54 | 225 | 6.0 | 7.0 | 0.00 | 0.00 | 0.00 | 48 | 1057.7 |
| 20260503071150 | 54 | 231 | 6.0 | 10.0 | 0.00 | 0.00 | 0.00 | 48 | 1057.9 |
| 20260503070647 | 54 | 193 | 6.0 | 10.0 | 0.00 | 0.00 | 0.00 | 47 | 1057.8 |
| 20260503070146 | 54 | 218 | 6.0 | 12.0 | 0.00 | 0.00 | 0.00 | 47 | 1057.9 |
| 20260503060110 | 54 | 227 | 3.0 | 8.0 | 0.00 | 0.00 | 0.00 | 47 | 1058.5 |
| 20260503055101 | 55 | 244 | 3.0 | 11.0 | 0.00 | 0.00 | 0.00 | 46 | 1058.7 |
| 20260503054557 | 55 | 215 | 5.0 | 13.0 | 0.00 | 0.00 | 0.00 | 46 | 1058.7 |
| 20260503054054 | 55 | 225 | 6.0 | 10.0 | 0.00 | 0.00 | 0.00 | 47 | 1058.9 |
| 20260503053552 | 54 | 207 | 5.0 | 8.0 | 0.00 | 0.00 | 0.00 | 48 | 1059.1 |
| 20260503053050 | 54 | 225 | 4.0 | 12.0 | 0.00 | 0.00 | 0.00 | 49 | 1059.2 |
| 20260503052547 | 54 | 212 | 6.0 | 12.0 | 0.00 | 0.00 | 0.00 | 48 | 1059.2 |
| 20260503052043 | 54 | 214 | 3.0 | 11.0 | 0.00 | 0.00 | 0.00 | 49 | 1059.2 |
| 20260503051538 | 55 | 212 | 6.0 | 13.0 | 0.00 | 0.00 | 0.00 | 49 | 1059.1 |
| 20260503051036 | 55 | 205 | 9.0 | 10.0 | 0.00 | 0.00 | 0.00 | 48 | 1059.1 |
| 20260503050531 | 55 | 211 | 4.0 | 5.0 | 0.00 | 0.00 | 0.00 | 48 | 1059.2 |
| 20260503050029 | 55 | 221 | 5.0 | 11.0 | 0.00 | 0.00 | 0.00 | 47 | 1059.2 |
| 20260503045526 | 55 | 190 | 2.0 | 7.0 | 0.00 | 0.00 | 0.00 | 48 | 1059.2 |
| 20260503045024 | 55 | 212 | 5.0 | 7.0 | 0.00 | 0.00 | 0.00 | 48 | 1059.3 |
| 20260503044520 | 55 | 221 | 5.0 | 5.0 | 0.00 | 0.00 | 0.00 | 49 | 1059.4 |
| 20260503044018 | 55 | 171 | 2.0 | 6.0 | 0.00 | 0.00 | 0.00 | 49 | 1059.5 |
| 20260503043514 | 55 | 214 | 3.0 | 4.0 | 0.00 | 0.00 | 0.00 | 50 | 1059.5 |
| 20260503043010 | 54 | 201 | 2.0 | 4.0 | 0.00 | 0.00 | 0.00 | 50 | 1059.7 |
| 20260503042507 | 54 | 202 | 2.0 | 3.0 | 0.00 | 0.00 | 0.00 | 51 | 1059.5 |
| 20260503042003 | 54 | 326 | 0.0 | 1.0 | 0.00 | 0.00 | 0.00 | 52 | 1059.6 |
| 20260503041500 | 54 | 207 | 1.0 | 2.0 | 0.00 | 0.00 | 0.00 | 52 | 1059.8 |
| 20260503040958 | 54 | 229 | 0.0 | 1.0 | 0.00 | 0.00 | 0.00 | 51 | 1059.6 |
| 20260503040455 | 54 | 3 | 2.0 | 2.0 | 0.00 | 0.00 | 0.00 | 51 | 1059.8 |
| 20260503035952 | 55 | 242 | 2.0 | 2.0 | 0.00 | 0.00 | 0.00 | 49 | 1059.9 |
| 20260503035449 | 55 | 161 | 0.0 | 3.0 | 0.00 | 0.00 | 0.00 | 49 | 1059.9 |
| 20260503034947 | 55 | 218 | 0.0 | 5.0 | 0.00 | 0.00 | 0.00 | 47 | 1060.1 |
| 20260503034444 | 55 | 203 | 4.0 | 5.0 | 0.00 | 0.00 | 0.00 | 47 | 1060.3 |
| 20260503033941 | 55 | 251 | 2.0 | 3.0 | 0.00 | 0.00 | 0.00 | 48 | 1060.4 |
| 20260503033438 | 55 | 224 | 3.0 | 4.0 | 0.00 | 0.00 | 0.00 | 48 | 1060.4 |
| 20260503032936 | 56 | 222 | 3.0 | 5.0 | 0.00 | 0.00 | 0.00 | 47 | 1060.4 |
| 20260503032435 | 56 | 203 | 4.0 | 4.0 | 0.00 | 0.00 | 0.00 | 46 | 1060.4 |
| 20260503031932 | 56 | 211 | 5.0 | 6.0 | 0.00 | 0.00 | 0.00 | 46 | 1060.3 |
| 20260503031429 | 57 | 215 | 2.0 | 5.0 | 0.00 | 0.00 | 0.00 | 45 | 1060.5 |
| 20260503030926 | 57 | 200 | 6.0 | 6.0 | 0.00 | 0.00 | 0.00 | 44 | 1060.5 |
| 20260503030423 | 57 | 209 | 6.0 | 10.0 | 0.00 | 0.00 | 0.00 | 43 | 1060.6 |
| 20260503025919 | 57 | 232 | 3.0 | 9.0 | 0.00 | 0.00 | 0.00 | 44 | 1060.5 |
| 20260503025416 | 57 | 86 | 0.0 | 5.0 | 0.00 | 0.00 | 0.00 | 44 | 1060.7 |
| 20260503024914 | 57 | 223 | 4.0 | 7.0 | 0.00 | 0.00 | 0.00 | 43 | 1060.7 |
| 20260503024410 | 58 | 207 | 5.0 | 8.0 | 0.00 | 0.00 | 0.00 | 42 | 1060.6 |
| 20260503023908 | 57 | 225 | 4.0 | 8.0 | 0.00 | 0.00 | 0.00 | 43 | 1060.6 |
| 20260503023405 | 57 | 217 | 3.0 | 4.0 | 0.00 | 0.00 | 0.00 | 44 | 1060.8 |
| 20260503022902 | 57 | 219 | 4.0 | 6.0 | 0.00 | 0.00 | 0.00 | 44 | 1060.8 |